Regional Weather Roundup
Issued by NWS

Home | Current Version | Previous Version | Graphics & Text | Print | Product List | Glossary Off
Versions: 1 2 3 4 5 6 7 8 9 10 11 12 13 14 15 16 17 18 19 20 21 22 23 24 25 26 27 28 29 30 31 32 33 34 35 36 37 38 39 40 41 42 43 44 45 46 47 48 49 50

000
ASUS43 KDMX 262301
RWRIA

WEATHER ROUNDUP FOR IOWA
NATIONAL WEATHER SERVICE DES MOINES IA
500 PM CST SUN FEB 26 2017

NOTE: "FAIR" INDICATES FEW OR NO CLOUDS BELOW 12,000 FEET WITH NO
SIGNIFICANT WEATHER AND/OR OBSTRUCTIONS TO VISIBILITY.

* - THESE STATIONS ARE NOT NWS STATIONS...THUS NOT UNDER NWS
QUALITY CONTROL.  THEY ALSO DO NOT REPORT WEATHER SUCH
AS PRECIPITATION OR FOG.

IAZ001>003-012>014-020>022-031>034-043>046-270000-
   NORTHWEST IOWA

CITY           SKY/WX    TMP DP  RH WIND       PRES   REMARKS
CARROLL *      SUNNY     34  28  80 W8        29.94S WCI  27
CHEROKEE *     SUNNY     32  24  73 SW6       29.92S WCI  27
DENISON *      SUNNY     36  23  60 SW6       29.92S WCI  31
LE MARS *      SUNNY     36  25  64 SW8       29.92S WCI  29
SHELDON *      SUNNY     34  32  93 SW9       29.88S WCI  26
SIOUX CITY     SUNNY     34  25  69 SW5       29.94R WCI  30
SPENCER        SUNNY     32  26  78 SW10      29.90S WCI  24
STORM LAKE *   SUNNY     30  25  80 SW7       29.91S WCI  23
$$

IAZ055>058-069>071-079>083-090>094-270000-
   SOUTHWEST IOWA

CITY           SKY/WX    TMP DP  RH WIND       PRES   REMARKS
ATLANTIC *     SUNNY     41  23  48 NW7       29.95R
AUDUBON *      SUNNY     37  25  60 CALM      29.95S
CLARINDA *     SUNNY     46  21  36 NW10      29.96R
COUNCIL BLFS * SUNNY     41  23  48 NE6       29.94R
CRESTON *      SUNNY     43  21  42 NW13      29.94S
HARLAN  *      SUNNY     36  28  75 CALM      29.98S
LAMONI         CLOUDY    47  25  42 W5        29.92R
RED OAK *      SUNNY     45  21  39 N9        29.94S
SHENANDOAH *   SUNNY     46  19  34 N8        29.94S
$$

IAZ047>049-059>061-072>074-084-270000-
   CENTRAL IOWA

CITY           SKY/WX    TMP DP  RH WIND       PRES   REMARKS
AMES           SUNNY     38  29  70 W10       29.95R WCI  31
ANKENY *       SUNNY     41  19  42 NW10      29.97R
BOONE *        SUNNY     36  25  64 W7        29.94R WCI  30
CHARITON *     MOSUNNY   46  23  39 NW13      29.93R
DES MOINES     MOSUNNY   44  19  36 NW8       29.95R
GRINNELL*      CLEAR     42  21  42 W14G20    29.95R
KNOXVILLE *    SUNNY     46  19  34 NW13G18   29.93R
MARSHALLTOWN   CLEAR     38  25  59 W10       29.94R WCI  31
NEWTON *       CLEAR     41  21  45 W12G18    29.94R
PELLA *        CLEAR     46  19  34 W13G22    29.95R
PERRY *          N/A     38  28  66 W7        29.96R WCI  33
$$

IAZ004>006-015-016-023>025-035-036-270000-
   NORTH CENTRAL IOWA

CITY           SKY/WX    TMP DP  RH WIND       PRES   REMARKS
ALGONA *       SUNNY     30  25  80 SW10      29.92R WCI  21
CLARION *      CLEAR     28  25  86 W5        29.94R WCI  23
ESTHERVILLE    SUNNY     31  27  85 SW9       29.89R WCI  23
FORT DODGE *   SUNNY     30  21  69 SW7       29.95R WCI  23
MASON CITY     CLEAR     29  21  72 W12       29.93R WCI  19
FOREST CITY *    N/A     32  23  69 SW6       29.92R WCI  26
WEBSTER CITY * SUNNY     32  25  74 SW6       29.93R WCI  26
IOWA FALLS *     N/A     34  27  76 W10       29.95S WCI  26
$$

IAZ007>011-017>019-026>030-037>042-050>054-066-270000-
   NORTHEAST IOWA

CITY           SKY/WX    TMP DP  RH WIND       PRES   REMARKS
CEDAR RAPIDS   CLEAR     43  24  47 W18       29.92R
CHARLES CITY * CLEAR     30  25  80 W9        29.94R WCI  22
CLINTON *      PTCLDY    46  29  51 SW16      29.93R
DECORAH *      CLEAR     32  25  74 VRB7G17   29.91R WCI  26
DUBUQUE        CLEAR     41  26  55 W15       29.91R
MONTICELLO *   CLEAR     43  25  49 W15G23    29.92R
OELWEIN *      CLEAR     37  27  65 W12       29.93R WCI  30
WATERLOO       CLEAR     36  24  62 W13       29.94R WCI  27
$$

IAZ064-065-067-068-078-270000-
   EAST CENTRAL IOWA

CITY           SKY/WX    TMP DP  RH WIND       PRES   REMARKS
DAVENPORT      CLEAR     45  29  53 SW16      29.94R
IOWA CITY      CLEAR     49  24  37 NW12G22   29.94R
MUSCATINE *    CLOUDY    46  28  49 SW21      29.95S
QUAD CITIES    CLOUDY    47  28  47 W12       29.94R
$$

IAZ062-063-075>077-085>089-095>099-270000-
   SOUTHEAST IOWA

CITY           SKY/WX    TMP DP  RH WIND       PRES   REMARKS
BURLINGTON     CLOUDY    48  31  51 SW17      29.95R
FAIRFIELD *    MOCLDY    46  28  49 SW14      29.95R
KEOKUK *       PTCLDY    48  28  46 S13G22    29.97R
CENTERVILLE *  LGT RAIN  45  32  61 W7        29.96R
OTTUMWA        MOCLDY    47  25  42 SW12      29.93R
WASHINGTON *   CLOUDY    46  30  53 SW7       29.95S
$$

ABBREVIATIONS USED IN REMARKS
   TC - TEMPERATURES IN CELSIUS
  WCI - WIND CHILL INDEX
   HX - HEAT INDEX
  VSB - VISIBILITY
$$




USA.gov is the U.S. government's official web portal to all federal, state and local government web resources and services.